Sparta, TN

4:25 AM CST on December 09, 2019 (GMT -0600)
Upper Cumberland Regional

Weather History for KSRB - October, 2019

Change the Weather History Date:

Saturday, October 26, 2019

  Actual Average (KCSV) Record (KCSV)
Temperature  
Mean Temperature 65 °F -  
Max Temperature 71 °F 64 °F 99 °F (2009)
Min Temperature 59 °F 41 °F -99 °F (2009)
Growing Degree Days 15 (Base 50)    
Moisture  
Dew Point 62 °F    
Average Humidity 86    
Maximum Humidity 100    
Minimum Humidity 72    
Precipitation  
Precipitation 0.28 in - - ()
Sea Level Pressure  
Sea Level Pressure 29.82 in    
Wind  
Wind Speed 10 mph ()    
Max Wind Speed 24 mph    
Max Gust Speed 39 mph    
Visibility 9.4 miles    
Events      
Averages and records for this station are not official NWS values.
T = Trace of Precipitation, MM = Missing Value Source: Averaged Metar Reports

Daily Weather History Graph

Daily Weather History Graph

Search for Another Location

Airport or City:

Astronomy

Oct. 26, 2019 Rise Set
Actual Time 6:58 AM CDT 5:52 PM CDT
Civil Twilight 6:32 AM CDT 6:19 PM CDT
Nautical Twilight 6:02 AM CDT 6:49 PM CDT
Astronomical Twilight 5:32 AM CDT 7:18 PM CDT
Moon 4:59 AM CDT (10/26) 5:23 PM CDT (10/26)
Length of Visible Light 11h 46m
Length of Day
10h 54m
Waning Crescent, 3% of the Moon is Illuminated
Oct 26
Waning Crescent
Oct 27
New
Nov 4
First Quarter
Nov 12
Full
Nov 19
Last Quarter

Hourly Weather History & Observations

Time (CDT) Temp. Dew Point Humidity Pressure Visibility Wind Dir Wind Speed Gust Speed Precip Events Conditions
12:15 AM 59.0 °F 59.0 °F 100% 30.05 in 5.0 mi East 6.9 mph 12.7 mph N/A   Overcast
12:35 AM 60.8 °F 59.0 °F 94% 30.05 in 4.0 mi ESE 6.9 mph - N/A   Overcast
12:55 AM 60.8 °F 59.0 °F 94% 30.04 in 5.0 mi ESE 6.9 mph - 0.17 in   Overcast
1:15 AM 60.8 °F 59.0 °F 94% 30.03 in 10.0 mi ESE 8.1 mph - N/A   Overcast
1:35 AM 60.8 °F 59.0 °F 94% 30.02 in 10.0 mi ESE 5.8 mph - N/A   Overcast
1:55 AM 60.8 °F 59.0 °F 94% 30.00 in 10.0 mi ESE 6.9 mph - 0.01 in   Overcast
2:15 AM 60.8 °F 59.0 °F 94% 29.99 in 10.0 mi ESE 8.1 mph - N/A   Overcast
2:35 AM 60.8 °F 59.0 °F 94% 29.98 in 10.0 mi SE 6.9 mph - N/A   Overcast
2:55 AM 62.6 °F 59.0 °F 88% 29.98 in 10.0 mi SE 8.1 mph - 0.01 in   Overcast
3:15 AM 62.6 °F 59.0 °F 88% 29.96 in 10.0 mi ESE 8.1 mph - N/A   Overcast
3:35 AM 62.6 °F 59.0 °F 88% 29.95 in 10.0 mi SE 10.4 mph - N/A   Overcast
3:55 AM 62.6 °F 59.0 °F 88% 29.95 in 10.0 mi SE 6.9 mph 16.1 mph N/A   Overcast
4:15 AM 62.6 °F 59.0 °F 88% 29.95 in 10.0 mi SSE 8.1 mph - N/A   Overcast
4:35 AM 62.6 °F 60.8 °F 94% 29.93 in 10.0 mi SE 6.9 mph - N/A   Overcast
4:55 AM 64.4 °F 60.8 °F 88% 29.92 in 10.0 mi SE 8.1 mph - N/A   Overcast
5:15 AM 64.4 °F 60.8 °F 88% 29.92 in 10.0 mi SE 6.9 mph 13.8 mph N/A   Overcast
5:35 AM 64.4 °F 60.8 °F 88% 29.92 in 10.0 mi SE 8.1 mph - N/A   Overcast
5:55 AM 64.4 °F 60.8 °F 88% 29.92 in 10.0 mi SSE 13.8 mph 21.9 mph N/A   Overcast
6:15 AM 64.4 °F 60.8 °F 88% 29.91 in 10.0 mi South 10.4 mph 18.4 mph N/A   Overcast
6:35 AM 64.4 °F 60.8 °F 88% 29.91 in 10.0 mi SSE 11.5 mph 19.6 mph N/A   Overcast
6:55 AM 64.4 °F 60.8 °F 88% 29.89 in 10.0 mi SSE 11.5 mph - N/A   Overcast
7:15 AM 64.4 °F 60.8 °F 88% 29.89 in 10.0 mi SSE 12.7 mph 20.7 mph N/A   Overcast
7:35 AM 66.2 °F 60.8 °F 83% 29.88 in 10.0 mi SSE 12.7 mph 24.2 mph N/A   Overcast
7:55 AM 66.2 °F 60.8 °F 83% 29.88 in 10.0 mi SSE 10.4 mph 18.4 mph N/A   Overcast
8:15 AM 66.2 °F 60.8 °F 83% 29.87 in 10.0 mi SSE 11.5 mph 17.3 mph N/A   Overcast
8:30 AM 66.2 °F 60.8 °F 83% 29.87 in 10.0 mi SSE 13.8 mph 26.5 mph N/A   Overcast
8:55 AM 66.2 °F 62.6 °F 88% 29.87 in 10.0 mi SSE 16.1 mph 26.5 mph N/A   Overcast
9:10 AM 66.2 °F 62.6 °F 88% 29.87 in 10.0 mi SSE 16.1 mph 24.2 mph N/A   Overcast
9:35 AM 66.2 °F 62.6 °F 88% 29.86 in 10.0 mi SSE 16.1 mph 26.5 mph N/A   Overcast
9:55 AM 68.0 °F 62.6 °F 83% 29.88 in 10.0 mi SSE 13.8 mph 27.6 mph N/A   Overcast
10:15 AM 68.0 °F 62.6 °F 83% 29.87 in 10.0 mi SSE 17.3 mph 26.5 mph N/A   Overcast
10:35 AM 68.0 °F 62.6 °F 83% 29.85 in 10.0 mi SSE 15.0 mph 21.9 mph N/A   Overcast
10:55 AM 68.0 °F 62.6 °F 83% 29.82 in 10.0 mi SSE 13.8 mph 26.5 mph N/A   Overcast
11:15 AM 68.0 °F 62.6 °F 83% 29.82 in 10.0 mi SSE 15.0 mph 23.0 mph N/A   Overcast
11:35 AM 68.0 °F 62.6 °F 83% 29.80 in 10.0 mi SSE 15.0 mph 23.0 mph N/A   Overcast
11:55 AM 68.0 °F 62.6 °F 83% 29.81 in 10.0 mi SSE 12.7 mph 27.6 mph N/A   Overcast
12:15 PM 68.0 °F 62.6 °F 83% 29.79 in 10.0 mi SSE 17.3 mph 27.6 mph N/A   Overcast
12:35 PM 68.0 °F 62.6 °F 83% 29.78 in 10.0 mi SSE 16.1 mph 26.5 mph N/A   Overcast
12:55 PM 69.8 °F 62.6 °F 78% 29.76 in 10.0 mi South 17.3 mph 24.2 mph N/A   Overcast
1:15 PM 69.8 °F 62.6 °F 78% 29.74 in 10.0 mi South 17.3 mph 27.6 mph N/A   Overcast
1:55 PM 69.8 °F 64.4 °F 83% 29.71 in 10.0 mi SSE 19.6 mph 39.1 mph N/A   Overcast
2:15 PM 69.8 °F 64.4 °F 83% 29.71 in 10.0 mi South 24.2 mph 34.5 mph N/A   Overcast
2:35 PM 69.8 °F 64.4 °F 83% 29.70 in 9.0 mi SSE 20.7 mph 31.1 mph N/A   Overcast
2:55 PM 68.0 °F 64.4 °F 88% 29.68 in 5.0 mi SSE 15.0 mph 28.8 mph 0.01 in   Haze
3:15 PM 69.8 °F 64.4 °F 83% 29.68 in 10.0 mi SSE 16.1 mph 26.5 mph N/A   Mostly Cloudy
3:35 PM 69.8 °F 64.4 °F 83% 29.68 in 10.0 mi SSE 20.7 mph 28.8 mph N/A   Overcast
3:55 PM 71.6 °F 64.4 °F 78% 29.67 in 10.0 mi South 13.8 mph 28.8 mph N/A   Overcast
4:15 PM 71.6 °F 64.4 °F 78% 29.66 in 10.0 mi South 16.1 mph 32.2 mph N/A   Overcast
4:35 PM 71.6 °F 64.4 °F 78% 29.66 in 10.0 mi SSE 16.1 mph 31.1 mph N/A   Overcast
4:55 PM 71.6 °F 64.4 °F 78% 29.66 in 10.0 mi South 17.3 mph 35.7 mph N/A   Mostly Cloudy
5:15 PM 71.6 °F 64.4 °F 78% 29.65 in 9.0 mi South 16.1 mph 28.8 mph N/A   Overcast
5:35 PM 69.8 °F 64.4 °F 83% 29.67 in 10.0 mi South 18.4 mph 33.4 mph N/A   Overcast
5:55 PM 69.8 °F 64.4 °F 83% 29.66 in 10.0 mi SSE 15.0 mph 29.9 mph N/A   Mostly Cloudy
6:35 PM 69.8 °F 66.2 °F 88% 29.66 in 3.0 mi South 12.7 mph 21.9 mph N/A   Overcast
6:55 PM 69.8 °F 66.2 °F 88% 29.66 in 7.0 mi South 12.7 mph 21.9 mph 0.03 in   Overcast
7:15 PM 69.8 °F 66.2 °F 88% 29.66 in 10.0 mi South 12.7 mph 20.7 mph N/A   Overcast
7:35 PM 69.8 °F 66.2 °F 88% 29.67 in 10.0 mi South 12.7 mph 19.6 mph N/A   Mostly Cloudy
7:55 PM 69.8 °F 66.2 °F 88% 29.68 in 10.0 mi SW 10.4 mph 18.4 mph N/A   Overcast
8:15 PM 69.8 °F 66.2 °F 88% 29.69 in 10.0 mi WSW 5.8 mph 13.8 mph N/A   Overcast
8:35 PM 69.8 °F 66.2 °F 88% 29.70 in 3.0 mi SW 15.0 mph 26.5 mph N/A   Overcast
8:55 PM 69.8 °F 68.0 °F 94% 29.70 in 10.0 mi SW 11.5 mph 18.4 mph 0.05 in   Overcast
9:15 PM 69.8 °F 68.0 °F 94% 29.72 in 10.0 mi SW 8.1 mph 15.0 mph N/A   Overcast
9:35 PM 68.0 °F 64.4 °F 88% 29.73 in 10.0 mi WSW 11.5 mph - N/A   Overcast
9:55 PM 66.2 °F 62.6 °F 88% 29.76 in 10.0 mi WSW 11.5 mph - N/A   Overcast
10:15 PM 66.2 °F 60.8 °F 83% 29.77 in 10.0 mi WSW 8.1 mph 17.3 mph N/A   Overcast
10:35 PM 64.4 °F 57.2 °F 77% 29.79 in 10.0 mi WSW 17.3 mph 23.0 mph N/A   Overcast
10:55 PM 62.6 °F 57.2 °F 82% 29.80 in 10.0 mi WSW 8.1 mph 15.0 mph N/A   Overcast
11:15 PM 62.6 °F 55.4 °F 77% 29.81 in 10.0 mi SW 10.4 mph - N/A   Overcast
11:35 PM 62.6 °F 55.4 °F 77% 29.82 in 10.0 mi WSW 8.1 mph - N/A   Overcast
11:55 PM 62.6 °F 53.6 °F 72% 29.83 in 10.0 mi WSW 12.7 mph 19.6 mph N/A   Overcast